Content
SEND FEEDBACK

Daily
Averages
Monthly
Summary
United Kingdom

LONDON, ENGLAND


Home > Europe > United Kingdom > England
Elevation: 61 meters     Latitude: 51 09N     Longitude: 000 11W

WEATHER
 
SELECT A DAY
Number of Records: 292,696;   Date Range: 7/1/96 - 7/23/14
 
SHARE

PRINT THIS DATA

[ ← Previous Day ]
WEATHER ALMANAC - 12 MAY, 2013
[ Next Day → ]
[ °F ]   °C
Weather ElementAverageHighLow
Temperature9.8 °C14 °C (12:50 pm)5 °C (1:50 am)
Dewpoint5.8 °C10 °C (7:20 pm)3 °C (3:50 am)
Humidity78.6 %94 % (5:20 pm)48 % (1:20 pm)
Barometer1015.2 hPa1017.3 hPa (9:50 am)1013.2 hPa (12:50 am)
Wind Speed19.3 km/h27.8 km/h (2:20 pm)
Wind Gust40.7 km/h (1:20 pm)
Weather ElementAverage
Visibility8.2 km
Wind DirectionWSW (247.7 °)

Weather ElementTotal
Precipitation---
Heating Degree Days8.8 (Base 18.3)
Averaged from 47 records on 12 May, 2013
WEATHER CONDITIONS BREAKOUT
WIND DIRECTION BREAKOUT
WEATHER BY HOUR - 12 MAY, 2013
[ °F ]   °C
Local TimeTemperatureDewpointHumidityBarometerVisibilityWind DirectionWind SpeedGust SpeedPrecipitationEventsConditions
12:50 AM6 °C4 °C87 %1013.2 hPaWSW (250°)16.7 km/hClear
1:20 AM6 °C4 °C87 %1013.2 hPaWSW (250°)14.8 km/hClear
1:50 AM5 °C4 °C93 %1013.2 hPaWSW (250°)16.7 km/h35.2 km/hClear
2:20 AM5 °C4 °C93 %1014.2 hPaWSW (250°)18.5 km/hClear
2:50 AM6 °C4 °C87 %1014.2 hPaWSW (250°)16.7 km/hClear
3:20 AM5 °C4 °C93 %1014.2 hPaWSW (250°)16.7 km/hClear
3:50 AM5 °C3 °C87 %1014.2 hPaWest (260°)16.7 km/hClear
4:20 AM5 °C3 °C87 %1014.2 hPaWest (260°)16.7 km/hClear
4:50 AM5 °C3 °C87 %1014.2 hPaWest (260°)16.7 km/hClear
5:20 AM6 °C4 °C87 %1015.2 hPaWest (270°)22.2 km/hClear
5:50 AM6 °C4 °C87 %1015.2 hPaWest (270°)20.4 km/hClear
6:20 AM6 °C4 °C87 %1015.2 hPaWest (270°)20.4 km/hClear
6:50 AM7 °C4 °C81 %1015.2 hPaWest (270°)18.5 km/hClear
7:20 AM7 °C4 °C81 %1016.3 hPaWest (270°)20.4 km/hClear
7:50 AM8 °C4 °C76 %1016.3 hPa10 kmWest (280°)20.4 km/hPartly Cloudy
8:20 AM9 °C5 °C76 %1016.3 hPa10 kmWest (270°)22.2 km/hPartly Cloudy
8:50 AM10 °C4 °C66 %1016.3 hPa10 kmWest (270°)20.4 km/hPartly Cloudy
9:20 AM11 °C4 °C62 %1016.3 hPa10 kmWest (270°)20.4 km/hPartly Cloudy
9:50 AM11 °C4 °C62 %1017.3 hPa10 kmWest (280°)20.4 km/hScattered Clouds
10:20 AM11 °C4 °C62 %1017.3 hPa10 kmWest (280°)22.2 km/hPartly Cloudy
10:50 AM12 °C4 °C58 %1017.3 hPa10 kmWest (260°)22.2 km/hPartly Cloudy
11:20 AM12 °C3 °C54 %1017.3 hPa10 kmWSW (250°)24.1 km/hScattered Clouds
11:50 AM13 °C4 °C54 %1017.3 hPa10 kmWest (260°)22.2 km/hScattered Clouds
12:20 PM13 °C3 °C51 %1017.3 hPa10 kmWest (260°)24.1 km/hScattered Clouds
12:50 PM14 °C4 °C51 %1016.3 hPa10 kmWest (260°)20.4 km/hScattered Clouds
1:20 PM14 °C3 °C48 %1016.3 hPa10 kmWSW (250°)22.2 km/h40.7 km/hScattered Clouds
1:50 PM14 °C3 °C48 %1016.3 hPa10 kmWSW (240°)22.2 km/hScattered Clouds
2:20 PM14 °C5 °C55 %1016.3 hPa10 kmWest (260°)27.8 km/hMostly Cloudy
2:50 PM13 °C5 °C58 %1016.3 hPa10 kmWSW (240°)24.1 km/hMostly Cloudy
3:20 PM13 °C6 °C63 %1016.3 hPa10 kmSW (230°)18.5 km/hMostly Cloudy
3:50 PM12 °C6 °C67 %1016.3 hPa10 kmSW (220°)20.4 km/hMostly Cloudy
4:20 PM12 °C7 °C72 %1016.3 hPa9 kmSW (230°)20.4 km/hRainLight Rain
4:50 PM11 °C8 °C82 %1015.2 hPa9 kmSSW (210°)14.8 km/hRainLight Rain
5:20 PM10 °C9 °C94 %1015.2 hPa8 kmSSW (210°)14.8 km/hRainLight Rain
5:50 PM10 °C9 °C94 %1015.2 hPa10 kmSW (220°)16.7 km/hMostly Cloudy
6:20 PM11 °C9 °C88 %1014.2 hPa10 kmSW (230°)18.5 km/h37 km/hRainLight Rain
6:50 PM11 °C9 °C88 %1014.2 hPa9 kmSW (230°)20.4 km/hRainLight Rain
7:20 PM11 °C10 °C94 %1014.2 hPa8 kmSW (230°)18.5 km/hMostly Cloudy
7:50 PM11 °C10 °C94 %1014.2 hPa6.9 kmSW (230°)20.4 km/hOvercast
8:20 PM11 °C10 °C94 %1013.2 hPa4 kmSW (230°)16.7 km/hHaze
8:50 PM11 °C10 °C94 %1014.2 hPa3.5 kmWSW (240°)20.4 km/hRainLight Rain
9:20 PM11 °C10 °C94 %1014.2 hPa2.6 kmSW (230°)18.5 km/hRainRain
9:50 PM11 °C10 °C94 %1014.2 hPa3.5 kmSW (230°)18.5 km/hLight Drizzle
10:20 PM11 °C10 °C94 %1014.2 hPa3.1 kmSW (230°)14.8 km/hRainLight Rain
10:50 PM11 °C10 °C94 %1014.2 hPa4 kmSW (230°)16.7 km/hRainLight Rain
11:20 PM11 °C10 °C94 %1014.2 hPa5 kmSW (220°)16.7 km/hHaze
11:50 PM11 °C10 °C94 %1014.2 hPa6 kmSW (230°)14.8 km/hMostly Cloudy
Hourly data recorded from EGKK, located 0 kilometers away from London, England







STORIES FROM OUR PARTNERS